Time,TemperatureF,DewpointF,PressureIn,WindDirection,WindDirectionDegrees,WindSpeedMPH,WindSpeedGustMPH,Humidity,HourlyPrecipIn,Conditions,Clouds,dailyrainin,SoftwareType,DateUTC
2013-07-23 00:04:00,63.8,58.5,29.83,NNW,347,0.0,0.0,83,0.00,,,0.00,Wunderground v.1.15,2013-07-23 05:04:00,
2013-07-23 00:09:00,63.8,58.9,29.84,NNW,347,0.0,0.0,84,0.00,,,0.00,Wunderground v.1.15,2013-07-23 05:09:00,
2013-07-23 00:14:00,63.9,59.0,29.84,NNW,347,0.0,0.0,84,0.00,,,0.00,Wunderground v.1.15,2013-07-23 05:14:00,
2013-07-23 00:19:00,64.1,59.2,29.83,NNW,347,0.0,0.0,84,0.00,,,0.00,Wunderground v.1.15,2013-07-23 05:19:00,
2013-07-23 00:25:00,64.3,59.0,29.83,NNW,347,0.0,0.0,83,0.00,,,0.00,Wunderground v.1.15,2013-07-23 05:25:00,
2013-07-23 00:31:00,64.5,59.2,29.84,NNW,347,0.0,0.0,83,0.00,,,0.00,Wunderground v.1.15,2013-07-23 05:31:00,
2013-07-23 00:36:00,64.7,59.4,29.84,NNW,347,0.0,0.0,83,0.00,,,0.00,Wunderground v.1.15,2013-07-23 05:36:00,
2013-07-23 00:41:00,64.8,59.5,29.84,NNW,347,0.0,0.0,83,0.00,,,0.00,Wunderground v.1.15,2013-07-23 05:41:00,
2013-07-23 00:47:00,64.9,59.6,29.84,NNW,347,0.0,0.0,83,0.00,,,0.00,Wunderground v.1.15,2013-07-23 05:47:00,
2013-07-23 00:52:00,64.9,59.3,29.84,NNW,347,0.0,0.0,82,0.00,,,0.00,Wunderground v.1.15,2013-07-23 05:52:00,
2013-07-23 00:57:00,65.0,59.4,29.84,NNW,347,0.0,0.0,82,0.00,,,0.00,Wunderground v.1.15,2013-07-23 05:57:00,
2013-07-23 01:03:00,65.0,59.4,29.84,NNW,347,0.0,0.0,82,0.00,,,0.00,Wunderground v.1.15,2013-07-23 06:03:00,
2013-07-23 01:08:00,65.2,59.2,29.83,NNW,329,0.0,0.0,81,0.00,,,0.00,Wunderground v.1.15,2013-07-23 06:08:00,
2013-07-23 01:13:00,65.3,59.3,29.84,NNW,329,0.0,0.0,81,0.00,,,0.00,Wunderground v.1.15,2013-07-23 06:13:00,
2013-07-23 01:19:00,65.4,59.4,29.84,NNW,329,0.0,0.0,81,0.00,,,0.00,Wunderground v.1.15,2013-07-23 06:19:00,
2013-07-23 01:24:00,65.5,59.5,29.84,NNW,329,1.0,1.0,81,0.00,,,0.00,Wunderground v.1.15,2013-07-23 06:24:00,
2013-07-23 01:30:00,65.4,59.4,29.84,North,360,0.0,3.0,81,0.00,,,0.00,Wunderground v.1.15,2013-07-23 06:30:00,
2013-07-23 01:36:00,65.2,58.9,29.84,North,360,0.0,1.0,80,0.00,,,0.00,Wunderground v.1.15,2013-07-23 06:36:00,
2013-07-23 01:41:00,65.0,58.7,29.84,North,360,0.0,1.0,80,0.00,,,0.00,Wunderground v.1.15,2013-07-23 06:41:00,
2013-07-23 01:47:00,64.8,58.8,29.84,North,360,0.0,3.0,81,0.00,,,0.00,Wunderground v.1.15,2013-07-23 06:47:00,
2013-07-23 01:52:00,64.5,58.5,29.84,North,360,0.0,1.0,81,0.00,,,0.00,Wunderground v.1.15,2013-07-23 06:52:00,
2013-07-23 01:57:00,64.1,58.5,29.84,North,350,2.0,2.0,82,0.00,,,0.00,Wunderground v.1.15,2013-07-23 06:57:00,
2013-07-23 02:03:00,63.8,58.2,29.85,NNW,338,0.0,1.0,82,0.00,,,0.00,Wunderground v.1.15,2013-07-23 07:03:00,
2013-07-23 02:08:00,63.5,58.2,29.85,NNW,338,2.0,2.0,83,0.00,,,0.00,Wunderground v.1.15,2013-07-23 07:08:00,
2013-07-23 02:13:00,63.2,57.9,29.84,North,350,0.0,0.0,83,0.00,,,0.00,Wunderground v.1.15,2013-07-23 07:13:00,
2013-07-23 02:18:00,63.0,58.1,29.84,North,350,0.0,4.0,84,0.00,,,0.00,Wunderground v.1.15,2013-07-23 07:18:00,
2013-07-23 02:23:00,62.7,57.8,29.84,North,360,0.0,0.0,84,0.00,,,0.00,Wunderground v.1.15,2013-07-23 07:23:00,
2013-07-23 02:29:00,62.4,57.8,29.84,North,355,0.0,2.0,85,0.00,,,0.00,Wunderground v.1.15,2013-07-23 07:29:00,
2013-07-23 02:34:00,62.1,57.5,29.85,North,355,0.0,0.0,85,0.00,,,0.00,Wunderground v.1.15,2013-07-23 07:34:00,
2013-07-23 02:39:00,61.9,57.3,29.86,North,355,0.0,2.0,85,0.00,,,0.00,Wunderground v.1.15,2013-07-23 07:39:00,
2013-07-23 02:44:00,61.6,57.4,29.86,North,355,0.0,0.0,86,0.00,,,0.00,Wunderground v.1.15,2013-07-23 07:44:00,
2013-07-23 02:49:00,61.3,57.1,29.86,North,355,0.0,0.0,86,0.00,,,0.00,Wunderground v.1.15,2013-07-23 07:49:00,
2013-07-23 02:54:00,61.1,56.9,29.86,North,355,0.0,0.0,86,0.00,,,0.00,Wunderground v.1.15,2013-07-23 07:54:00,
2013-07-23 02:59:00,60.8,56.9,29.86,North,355,0.0,2.0,87,0.00,,,0.00,Wunderground v.1.15,2013-07-23 07:59:00,
2013-07-23 03:04:00,60.6,56.7,29.85,North,355,0.0,0.0,87,0.00,,,0.00,Wunderground v.1.15,2013-07-23 08:04:00,
2013-07-23 03:09:00,60.4,56.8,29.86,North,355,0.0,2.0,88,0.00,,,0.00,Wunderground v.1.15,2013-07-23 08:09:00,
2013-07-23 03:14:00,60.2,56.6,29.86,North,355,0.0,0.0,88,0.00,,,0.00,Wunderground v.1.15,2013-07-23 08:14:00,
2013-07-23 03:19:00,60.0,56.4,29.86,North,355,0.0,0.0,88,0.00,,,0.00,Wunderground v.1.15,2013-07-23 08:19:00,
2013-07-23 03:24:00,59.8,56.6,29.86,North,355,0.0,0.0,89,0.00,,,0.00,Wunderground v.1.15,2013-07-23 08:24:00,
2013-07-23 03:29:00,59.6,56.4,29.86,North,355,0.0,1.0,89,0.00,,,0.00,Wunderground v.1.15,2013-07-23 08:29:00,
2013-07-23 03:35:00,59.4,56.2,29.86,North,355,0.0,0.0,89,0.00,,,0.00,Wunderground v.1.15,2013-07-23 08:35:00,
2013-07-23 03:40:00,59.3,56.4,29.86,North,355,0.0,2.0,90,0.00,,,0.00,Wunderground v.1.15,2013-07-23 08:40:00,
2013-07-23 03:45:00,59.1,56.2,29.86,North,355,0.0,0.0,90,0.00,,,0.00,Wunderground v.1.15,2013-07-23 08:45:00,
2013-07-23 03:50:00,59.0,56.4,29.86,North,355,0.0,4.0,91,0.00,,,0.00,Wunderground v.1.15,2013-07-23 08:50:00,
2013-07-23 03:55:00,58.9,56.3,29.86,North,355,0.0,0.0,91,0.00,,,0.00,Wunderground v.1.15,2013-07-23 08:55:00,
2013-07-23 04:01:00,58.7,56.1,29.86,North,355,0.0,0.0,91,0.00,,,0.00,Wunderground v.1.15,2013-07-23 09:01:00,
2013-07-23 04:06:00,58.6,56.0,29.87,North,355,0.0,0.0,91,0.00,,,0.00,Wunderground v.1.15,2013-07-23 09:06:00,
2013-07-23 04:11:00,58.4,55.8,29.87,North,355,0.0,0.0,91,0.00,,,0.00,Wunderground v.1.15,2013-07-23 09:11:00,
2013-07-23 04:16:00,58.2,55.9,29.87,North,355,0.0,0.0,92,0.00,,,0.00,Wunderground v.1.15,2013-07-23 09:16:00,
2013-07-23 04:21:00,58.1,55.8,29.87,North,355,0.0,0.0,92,0.00,,,0.00,Wunderground v.1.15,2013-07-23 09:21:00,
2013-07-23 04:26:00,57.9,55.9,29.87,North,355,0.0,0.0,93,0.00,,,0.00,Wunderground v.1.15,2013-07-23 09:26:00,
2013-07-23 04:31:00,57.8,55.8,29.87,North,355,0.0,0.0,93,0.00,,,0.00,Wunderground v.1.15,2013-07-23 09:31:00,
2013-07-23 04:36:00,57.6,55.6,29.88,North,355,0.0,0.0,93,0.00,,,0.00,Wunderground v.1.15,2013-07-23 09:36:00,
2013-07-23 04:41:00,57.4,55.4,29.88,North,355,0.0,0.0,93,0.00,,,0.00,Wunderground v.1.15,2013-07-23 09:41:00,
2013-07-23 04:46:00,57.3,55.3,29.89,North,355,0.0,0.0,93,0.00,,,0.00,Wunderground v.1.15,2013-07-23 09:46:00,
2013-07-23 04:52:00,57.1,55.1,29.88,North,355,0.0,0.0,93,0.00,,,0.00,Wunderground v.1.15,2013-07-23 09:52:00,
2013-07-23 04:57:00,57.0,55.0,29.88,North,355,0.0,0.0,93,0.00,,,0.00,Wunderground v.1.15,2013-07-23 09:57:00,
2013-07-23 05:02:00,56.8,55.1,29.88,North,355,0.0,0.0,94,0.00,,,0.00,Wunderground v.1.15,2013-07-23 10:02:00,
2013-07-23 05:07:00,56.6,54.9,29.88,North,355,0.0,0.0,94,0.00,,,0.00,Wunderground v.1.15,2013-07-23 10:07:00,
2013-07-23 05:13:00,56.3,54.6,29.89,North,355,0.0,0.0,94,0.00,,,0.00,Wunderground v.1.15,2013-07-23 10:13:00,
2013-07-23 05:18:00,56.2,54.5,29.89,North,355,0.0,0.0,94,0.00,,,0.00,Wunderground v.1.15,2013-07-23 10:18:00,
2013-07-23 05:23:00,56.1,54.7,29.89,North,355,0.0,0.0,95,0.00,,,0.00,Wunderground v.1.15,2013-07-23 10:23:00,
2013-07-23 05:28:00,56.1,54.7,29.90,North,355,0.0,3.0,95,0.00,,,0.00,Wunderground v.1.15,2013-07-23 10:28:00,
2013-07-23 05:33:00,56.1,54.7,29.90,North,355,0.0,0.0,95,0.00,,,0.00,Wunderground v.1.15,2013-07-23 10:33:00,
2013-07-23 05:38:00,56.1,55.0,29.90,North,355,0.0,0.0,96,0.00,,,0.00,Wunderground v.1.15,2013-07-23 10:38:00,
2013-07-23 05:43:00,56.1,55.0,29.90,North,355,2.0,2.0,96,0.00,,,0.00,Wunderground v.1.15,2013-07-23 10:43:00,
2013-07-23 05:48:00,56.1,55.0,29.90,North,355,0.0,2.0,96,0.00,,,0.00,Wunderground v.1.15,2013-07-23 10:48:00,
2013-07-23 05:54:00,56.2,55.1,29.90,North,355,0.0,0.0,96,0.00,,,0.00,Wunderground v.1.15,2013-07-23 10:54:00,
2013-07-23 05:59:00,56.3,55.2,29.90,North,355,0.0,3.0,96,0.00,,,0.00,Wunderground v.1.15,2013-07-23 10:59:00,
2013-07-23 06:04:00,56.3,55.2,29.90,North,355,0.0,0.0,96,0.00,,,0.00,Wunderground v.1.15,2013-07-23 11:04:00,
2013-07-23 06:09:00,56.2,55.1,29.90,North,355,0.0,0.0,96,0.00,,,0.00,Wunderground v.1.15,2013-07-23 11:09:00,
2013-07-23 06:14:00,56.2,55.1,29.90,NNW,339,4.0,4.0,96,0.00,,,0.00,Wunderground v.1.15,2013-07-23 11:14:00,
2013-07-23 06:19:00,56.2,55.1,29.90,NNW,338,0.0,4.0,96,0.00,,,0.00,Wunderground v.1.15,2013-07-23 11:19:00,
2013-07-23 06:24:00,56.2,55.1,29.90,NNW,338,3.0,3.0,96,0.00,,,0.00,Wunderground v.1.15,2013-07-23 11:24:00,
2013-07-23 06:29:00,56.3,55.5,29.90,NNW,338,0.0,5.0,97,0.00,,,0.00,Wunderground v.1.15,2013-07-23 11:29:00,
2013-07-23 06:35:00,56.3,55.5,29.91,NNW,338,0.0,0.0,97,0.00,,,0.00,Wunderground v.1.15,2013-07-23 11:35:00,
2013-07-23 06:40:00,56.3,55.5,29.91,NNW,338,0.0,0.0,97,0.00,,,0.00,Wunderground v.1.15,2013-07-23 11:40:00,
2013-07-23 06:45:00,56.3,55.5,29.91,NNW,338,0.0,0.0,97,0.00,,,0.00,Wunderground v.1.15,2013-07-23 11:45:00,
2013-07-23 06:50:00,56.3,55.5,29.91,NNW,338,0.0,0.0,97,0.00,,,0.00,Wunderground v.1.15,2013-07-23 11:50:00,
2013-07-23 06:55:00,56.3,55.5,29.91,NNW,338,0.0,0.0,97,0.00,,,0.00,Wunderground v.1.15,2013-07-23 11:55:00,
2013-07-23 07:00:00,56.4,55.6,29.92,NNW,338,0.0,0.0,97,0.00,,,0.00,Wunderground v.1.15,2013-07-23 12:00:00,
2013-07-23 07:05:00,56.6,55.8,29.92,NNW,338,0.0,2.0,97,0.00,,,0.00,Wunderground v.1.15,2013-07-23 12:05:00,
2013-07-23 07:10:00,57.0,56.2,29.92,NNW,339,1.0,4.0,97,0.00,,,0.00,Wunderground v.1.15,2013-07-23 12:10:00,
2013-07-23 07:16:00,57.4,56.6,29.93,NNW,339,0.0,2.0,97,0.00,,,0.00,Wunderground v.1.15,2013-07-23 12:16:00,
2013-07-23 07:21:00,57.9,57.3,29.93,North,360,1.0,3.0,98,0.00,,,0.00,Wunderground v.1.15,2013-07-23 12:21:00,
2013-07-23 07:26:00,58.6,57.8,29.93,North,360,0.0,7.0,97,0.00,,,0.00,Wunderground v.1.15,2013-07-23 12:26:00,
2013-07-23 07:31:00,59.6,58.2,29.94,NW,323,0.0,7.0,95,0.00,,,0.00,Wunderground v.1.15,2013-07-23 12:31:00,
2013-07-23 07:36:00,60.8,58.8,29.94,NNW,339,1.0,4.0,93,0.00,,,0.00,Wunderground v.1.15,2013-07-23 12:36:00,
2013-07-23 07:41:00,62.0,58.7,29.94,NNE,31,0.0,5.0,89,0.00,,,0.00,Wunderground v.1.15,2013-07-23 12:41:00,
2013-07-23 07:47:00,62.7,59.1,29.95,NNE,14,0.0,4.0,88,0.00,,,0.00,Wunderground v.1.15,2013-07-23 12:47:00,
2013-07-23 07:52:00,63.6,58.7,29.95,NE,38,0.0,5.0,84,0.00,,,0.00,Wunderground v.1.15,2013-07-23 12:52:00,
2013-07-23 07:57:00,64.1,58.5,29.95,North,355,3.0,8.0,82,0.00,,,0.00,Wunderground v.1.15,2013-07-23 12:57:00,
2013-07-23 08:02:00,64.4,58.1,29.96,NE,43,3.0,8.0,80,0.00,,,0.00,Wunderground v.1.15,2013-07-23 13:02:00,
2013-07-23 08:07:00,65.1,58.1,29.95,NE,51,0.0,4.0,78,0.00,,,0.00,Wunderground v.1.15,2013-07-23 13:07:00,
2013-07-23 08:12:00,65.6,57.8,29.95,NE,56,4.0,4.0,76,0.00,,,0.00,Wunderground v.1.15,2013-07-23 13:12:00,
2013-07-23 08:17:00,65.9,58.1,29.95,ENE,62,5.0,5.0,76,0.00,,,0.00,Wunderground v.1.15,2013-07-23 13:17:00,
2013-07-23 08:22:00,66.2,58.4,29.95,NNE,21,0.0,3.0,76,0.00,,,0.00,Wunderground v.1.15,2013-07-23 13:22:00,
2013-07-23 08:27:00,66.5,58.3,29.96,NW,321,2.0,8.0,75,0.00,,,0.00,Wunderground v.1.15,2013-07-23 13:27:00,
2013-07-23 08:32:00,66.5,58.0,29.96,NNW,344,0.0,4.0,74,0.00,,,0.00,Wunderground v.1.15,2013-07-23 13:32:00,
2013-07-23 08:37:00,66.8,57.9,29.96,North,5,0.0,7.0,73,0.00,,,0.00,Wunderground v.1.15,2013-07-23 13:37:00,
2013-07-23 08:43:00,67.0,57.3,29.96,NE,42,6.0,6.0,71,0.00,,,0.00,Wunderground v.1.15,2013-07-23 13:43:00,
2013-07-23 08:48:00,67.4,58.1,29.96,NNW,338,5.0,9.0,72,0.00,,,0.00,Wunderground v.1.15,2013-07-23 13:48:00,
2013-07-23 08:53:00,67.7,59.1,29.95,NNW,339,2.0,4.0,74,0.00,,,0.00,Wunderground v.1.15,2013-07-23 13:53:00,
2013-07-23 08:58:00,68.2,58.0,29.96,North,9,0.0,8.0,70,0.00,,,0.00,Wunderground v.1.15,2013-07-23 13:58:00,
2013-07-23 09:03:00,68.5,57.9,29.95,North,11,2.0,9.0,69,0.00,,,0.00,Wunderground v.1.15,2013-07-23 14:03:00,
2013-07-23 09:08:00,68.5,57.9,29.96,NNW,333,6.0,9.0,69,0.00,,,0.00,Wunderground v.1.15,2013-07-23 14:08:00,
2013-07-23 09:14:00,68.3,57.3,29.96,NNW,333,4.0,8.0,68,0.00,,,0.00,Wunderground v.1.15,2013-07-23 14:14:00,
2013-07-23 09:19:00,68.4,57.4,29.95,NW,313,4.0,11.0,68,0.00,,,0.00,Wunderground v.1.15,2013-07-23 14:19:00,
2013-07-23 09:24:00,68.6,57.2,29.95,NE,46,6.0,13.0,67,0.00,,,0.00,Wunderground v.1.15,2013-07-23 14:24:00,
2013-07-23 09:29:00,68.8,57.4,29.95,North,360,4.0,13.0,67,0.00,,,0.00,Wunderground v.1.15,2013-07-23 14:29:00,
2013-07-23 09:34:00,69.0,57.2,29.95,NNE,28,6.0,9.0,66,0.00,,,0.00,Wunderground v.1.15,2013-07-23 14:34:00,
2013-07-23 09:40:00,69.1,56.8,29.96,NNE,25,6.0,10.0,65,0.00,,,0.00,Wunderground v.1.15,2013-07-23 14:40:00,
2013-07-23 09:45:00,69.1,57.3,29.96,North,360,10.0,10.0,66,0.00,,,0.00,Wunderground v.1.15,2013-07-23 14:45:00,
2013-07-23 09:50:00,69.2,56.9,29.96,NNE,27,3.0,10.0,65,0.00,,,0.00,Wunderground v.1.15,2013-07-23 14:50:00,
2013-07-23 09:55:00,69.2,56.5,29.96,NNE,16,7.0,15.0,64,0.00,,,0.00,Wunderground v.1.15,2013-07-23 14:55:00,
2013-07-23 10:00:00,69.4,57.1,29.96,NNE,13,9.0,15.0,65,0.00,,,0.00,Wunderground v.1.15,2013-07-23 15:00:00,
2013-07-23 10:05:00,69.6,57.3,29.97,NNW,346,6.0,6.0,65,0.00,,,0.00,Wunderground v.1.15,2013-07-23 15:05:00,
2013-07-23 10:10:00,69.7,57.0,29.97,NNE,19,0.0,7.0,64,0.00,,,0.00,Wunderground v.1.15,2013-07-23 15:10:00,
2013-07-23 10:15:00,70.0,57.7,29.97,NW,310,2.0,8.0,65,0.00,,,0.00,Wunderground v.1.15,2013-07-23 15:15:00,
2013-07-23 10:20:00,70.3,57.1,29.97,NE,34,2.0,8.0,63,0.00,,,0.00,Wunderground v.1.15,2013-07-23 15:20:00,
2013-07-23 10:25:00,70.6,56.9,29.98,ENE,57,7.0,7.0,62,0.00,,,0.00,Wunderground v.1.15,2013-07-23 15:25:00,
2013-07-23 10:31:00,70.5,56.9,29.97,NNW,348,3.0,9.0,62,0.00,,,0.00,Wunderground v.1.15,2013-07-23 15:31:00,
2013-07-23 10:36:00,70.4,56.3,29.98,ESE,113,6.0,6.0,61,0.00,,,0.00,Wunderground v.1.15,2013-07-23 15:36:00,
2013-07-23 10:41:00,70.8,58.0,29.98,NNE,23,2.0,9.0,64,0.00,,,0.00,Wunderground v.1.15,2013-07-23 15:41:00,
2013-07-23 10:46:00,71.0,55.9,29.99,SE,130,0.0,6.0,59,0.00,,,0.00,Wunderground v.1.15,2013-07-23 15:46:00,
2013-07-23 10:51:00,71.4,56.3,29.98,NNW,346,5.0,6.0,59,0.00,,,0.00,Wunderground v.1.15,2013-07-23 15:51:00,
2013-07-23 10:56:00,71.9,57.3,29.98,NE,53,7.0,7.0,60,0.00,,,0.00,Wunderground v.1.15,2013-07-23 15:56:00,
2013-07-23 11:01:00,72.2,57.5,29.99,East,88,7.0,7.0,60,0.00,,,0.00,Wunderground v.1.15,2013-07-23 16:01:00,
2013-07-23 11:06:00,72.2,56.6,29.99,NNE,14,0.0,9.0,58,0.00,,,0.00,Wunderground v.1.15,2013-07-23 16:06:00,
2013-07-23 11:11:00,72.0,57.4,29.99,ENE,61,0.0,9.0,60,0.00,,,0.00,Wunderground v.1.15,2013-07-23 16:11:00,
2013-07-23 11:17:00,72.2,57.5,29.99,NNE,23,6.0,7.0,60,0.00,,,0.00,Wunderground v.1.15,2013-07-23 16:17:00,
2013-07-23 11:22:00,72.4,56.8,29.99,NNW,345,3.0,7.0,58,0.00,,,0.00,Wunderground v.1.15,2013-07-23 16:22:00,
2013-07-23 11:27:00,72.2,57.1,29.99,NE,43,2.0,6.0,59,0.00,,,0.00,Wunderground v.1.15,2013-07-23 16:27:00,
2013-07-23 11:32:00,72.2,58.9,29.99,ENE,61,3.0,3.0,63,0.00,,,0.00,Wunderground v.1.15,2013-07-23 16:32:00,
2013-07-23 11:37:00,72.8,58.6,29.99,NW,325,7.0,8.0,61,0.00,,,0.00,Wunderground v.1.15,2013-07-23 16:37:00,
2013-07-23 11:42:00,73.1,58.4,29.99,NNW,337,3.0,3.0,60,0.00,,,0.00,Wunderground v.1.15,2013-07-23 16:42:00,
2013-07-23 11:47:00,73.3,57.6,29.98,NE,48,4.0,6.0,58,0.00,,,0.00,Wunderground v.1.15,2013-07-23 16:47:00,
2013-07-23 11:52:00,73.2,58.0,29.98,NNW,341,2.0,3.0,59,0.00,,,0.00,Wunderground v.1.15,2013-07-23 16:52:00,
2013-07-23 11:58:00,73.5,58.8,29.98,ENE,70,5.0,10.0,60,0.00,,,0.00,Wunderground v.1.15,2013-07-23 16:58:00,
2013-07-23 12:03:00,73.4,57.7,29.98,NNE,32,5.0,10.0,58,0.00,,,0.00,Wunderground v.1.15,2013-07-23 17:03:00,
2013-07-23 12:08:00,73.4,58.2,29.98,NE,46,1.0,10.0,59,0.00,,,0.00,Wunderground v.1.15,2013-07-23 17:08:00,
2013-07-23 12:13:00,73.7,57.0,29.98,NW,304,3.0,8.0,56,0.00,,,0.00,Wunderground v.1.15,2013-07-23 17:13:00,
2013-07-23 12:18:00,73.6,58.4,29.98,North,5,0.0,8.0,59,0.00,,,0.00,Wunderground v.1.15,2013-07-23 17:18:00,
2013-07-23 12:23:00,74.3,58.6,29.98,North,11,0.0,2.0,58,0.00,,,0.00,Wunderground v.1.15,2013-07-23 17:23:00,
2013-07-23 12:29:00,74.7,59.4,29.98,East,87,3.0,10.0,59,0.00,,,0.00,Wunderground v.1.15,2013-07-23 17:29:00,
2013-07-23 12:34:00,74.5,56.8,29.98,NNW,331,2.0,4.0,54,0.00,,,0.00,Wunderground v.1.15,2013-07-23 17:34:00,
2013-07-23 12:39:00,74.4,59.1,29.98,ENE,67,0.0,7.0,59,0.00,,,0.00,Wunderground v.1.15,2013-07-23 17:39:00,
2013-07-23 12:44:00,74.8,59.0,29.98,WNW,282,0.0,7.0,58,0.00,,,0.00,Wunderground v.1.15,2013-07-23 17:44:00,
2013-07-23 12:49:00,75.0,57.7,29.98,WNW,296,3.0,10.0,55,0.00,,,0.00,Wunderground v.1.15,2013-07-23 17:49:00,
2013-07-23 12:55:00,75.2,56.9,29.98,North,355,10.0,10.0,53,0.00,,,0.00,Wunderground v.1.15,2013-07-23 17:55:00,
2013-07-23 13:00:00,75.4,59.1,29.98,NW,314,0.0,10.0,57,0.00,,,0.00,Wunderground v.1.15,2013-07-23 18:00:00,
2013-07-23 13:05:00,75.7,57.4,29.98,NE,49,2.0,6.0,53,0.00,,,0.00,Wunderground v.1.15,2013-07-23 18:05:00,
2013-07-23 13:10:00,75.8,58.0,29.97,NW,321,0.0,8.0,54,0.00,,,0.00,Wunderground v.1.15,2013-07-23 18:10:00,
2013-07-23 13:15:00,75.8,58.5,29.98,NNW,342,0.0,9.0,55,0.00,,,0.00,Wunderground v.1.15,2013-07-23 18:15:00,
2013-07-23 13:20:00,75.7,56.8,29.97,NNE,29,6.0,9.0,52,0.00,,,0.00,Wunderground v.1.15,2013-07-23 18:20:00,
2013-07-23 13:25:00,75.8,60.0,29.98,East,84,2.0,5.0,58,0.00,,,0.00,Wunderground v.1.15,2013-07-23 18:25:00,
2013-07-23 13:30:00,75.9,57.5,29.97,NE,55,2.0,5.0,53,0.00,,,0.00,Wunderground v.1.15,2013-07-23 18:30:00,
2013-07-23 13:36:00,76.0,57.6,29.97,NE,36,0.0,7.0,53,0.00,,,0.00,Wunderground v.1.15,2013-07-23 18:36:00,
2013-07-23 13:41:00,76.3,57.4,29.97,NE,40,3.0,10.0,52,0.00,,,0.00,Wunderground v.1.15,2013-07-23 18:41:00,
2013-07-23 13:46:00,76.3,56.8,29.98,ENE,69,1.0,7.0,51,0.00,,,0.00,Wunderground v.1.15,2013-07-23 18:46:00,
2013-07-23 13:51:00,76.4,58.0,29.98,North,5,2.0,8.0,53,0.00,,,0.00,Wunderground v.1.15,2013-07-23 18:51:00,
2013-07-23 13:57:00,76.2,57.3,29.98,ENE,70,0.0,3.0,52,0.00,,,0.00,Wunderground v.1.15,2013-07-23 18:57:00,
2013-07-23 14:02:00,76.4,57.5,29.98,NW,322,0.0,7.0,52,0.00,,,0.00,Wunderground v.1.15,2013-07-23 19:02:00,
2013-07-23 14:07:00,76.3,57.4,29.97,ENE,69,8.0,8.0,52,0.00,,,0.00,Wunderground v.1.15,2013-07-23 19:07:00,
2013-07-23 14:12:00,76.4,57.5,29.97,East,79,0.0,8.0,52,0.00,,,0.00,Wunderground v.1.15,2013-07-23 19:12:00,
2013-07-23 14:17:00,76.4,56.9,29.98,NE,37,0.0,7.0,51,0.00,,,0.00,Wunderground v.1.15,2013-07-23 19:17:00,
2013-07-23 14:22:00,76.5,56.5,29.98,NNE,33,0.0,2.0,50,0.00,,,0.00,Wunderground v.1.15,2013-07-23 19:22:00,
2013-07-23 14:27:00,77.3,59.4,29.98,ENE,65,4.0,7.0,54,0.00,,,0.00,Wunderground v.1.15,2013-07-23 19:27:00,
2013-07-23 14:33:00,77.5,58.5,29.97,NW,323,0.0,1.0,52,0.00,,,0.00,Wunderground v.1.15,2013-07-23 19:33:00,
2013-07-23 14:38:00,77.8,56.5,29.98,North,5,3.0,10.0,48,0.00,,,0.00,Wunderground v.1.15,2013-07-23 19:38:00,
2013-07-23 14:43:00,77.4,57.9,29.98,ENE,57,3.0,6.0,51,0.00,,,0.00,Wunderground v.1.15,2013-07-23 19:43:00,
2013-07-23 14:48:00,77.5,59.5,29.98,ENE,64,4.0,7.0,54,0.00,,,0.00,Wunderground v.1.15,2013-07-23 19:48:00,
2013-07-23 14:53:00,77.8,58.8,29.98,SE,137,0.0,5.0,52,0.00,,,0.00,Wunderground v.1.15,2013-07-23 19:53:00,
2013-07-23 14:59:00,77.9,60.4,29.97,ENE,57,0.0,5.0,55,0.00,,,0.00,Wunderground v.1.15,2013-07-23 19:59:00,
2013-07-23 15:04:00,78.0,59.5,29.98,ESE,112,1.0,7.0,53,0.00,,,0.00,Wunderground v.1.15,2013-07-23 20:04:00,
2013-07-23 15:09:00,78.1,57.4,29.97,ENE,68,2.0,7.0,49,0.00,,,0.00,Wunderground v.1.15,2013-07-23 20:09:00,
2013-07-23 15:14:00,78.0,58.9,29.98,NNW,340,6.0,7.0,52,0.00,,,0.00,Wunderground v.1.15,2013-07-23 20:14:00,
2013-07-23 15:20:00,77.8,57.7,29.98,NNW,328,0.0,7.0,50,0.00,,,0.00,Wunderground v.1.15,2013-07-23 20:20:00,
2013-07-23 15:25:00,78.0,61.5,29.98,NE,55,3.0,4.0,57,0.00,,,0.00,Wunderground v.1.15,2013-07-23 20:25:00,
2013-07-23 15:30:00,78.2,59.7,29.98,NNW,344,3.0,7.0,53,0.00,,,0.00,Wunderground v.1.15,2013-07-23 20:30:00,
2013-07-23 15:35:00,78.5,58.3,29.98,NNW,333,5.0,5.0,50,0.00,,,0.00,Wunderground v.1.15,2013-07-23 20:35:00,
2013-07-23 15:40:00,78.7,57.9,29.98,West,277,1.0,5.0,49,0.00,,,0.00,Wunderground v.1.15,2013-07-23 20:40:00,
2013-07-23 15:45:00,78.4,58.2,29.98,NNW,346,0.0,4.0,50,0.00,,,0.00,Wunderground v.1.15,2013-07-23 20:45:00,
2013-07-23 15:51:00,78.2,58.0,29.98,NE,40,0.0,4.0,50,0.00,,,0.00,Wunderground v.1.15,2013-07-23 20:51:00,
2013-07-23 15:56:00,77.9,59.9,29.97,ENE,63,0.0,2.0,54,0.00,,,0.00,Wunderground v.1.15,2013-07-23 20:56:00,
2013-07-23 16:01:00,78.1,57.9,29.97,ENE,74,1.0,6.0,50,0.00,,,0.00,Wunderground v.1.15,2013-07-23 21:01:00,
2013-07-23 16:06:00,78.5,57.7,29.97,NNW,329,0.0,5.0,49,0.00,,,0.00,Wunderground v.1.15,2013-07-23 21:06:00,
2013-07-23 16:11:00,78.2,58.0,29.97,NE,54,2.0,5.0,50,0.00,,,0.00,Wunderground v.1.15,2013-07-23 21:11:00,
2013-07-23 16:16:00,78.1,57.4,29.97,NNE,24,0.0,3.0,49,0.00,,,0.00,Wunderground v.1.15,2013-07-23 21:16:00,
2013-07-23 16:22:00,77.8,58.8,29.97,North,5,0.0,3.0,52,0.00,,,0.00,Wunderground v.1.15,2013-07-23 21:22:00,
2013-07-23 16:27:00,78.0,59.5,29.97,NNE,14,4.0,7.0,53,0.00,,,0.00,Wunderground v.1.15,2013-07-23 21:27:00,
2013-07-23 16:33:00,78.6,61.1,29.97,NNW,336,0.0,3.0,55,0.00,,,0.00,Wunderground v.1.15,2013-07-23 21:33:00,
2013-07-23 16:38:00,78.6,57.3,29.97,NE,38,0.0,8.0,48,0.00,,,0.00,Wunderground v.1.15,2013-07-23 21:38:00,
2013-07-23 16:43:00,78.6,58.4,29.97,ENE,63,5.0,5.0,50,0.00,,,0.00,Wunderground v.1.15,2013-07-23 21:43:00,
2013-07-23 16:49:00,78.1,57.9,29.97,ENE,73,4.0,7.0,50,0.00,,,0.00,Wunderground v.1.15,2013-07-23 21:49:00,
2013-07-23 16:54:00,78.0,58.4,29.96,NNE,26,0.0,3.0,51,0.00,,,0.00,Wunderground v.1.15,2013-07-23 21:54:00,
2013-07-23 16:59:00,78.2,59.7,29.97,ENE,69,2.0,7.0,53,0.00,,,0.00,Wunderground v.1.15,2013-07-23 21:59:00,
2013-07-23 17:04:00,78.1,60.1,29.97,East,91,0.0,4.0,54,0.00,,,0.00,Wunderground v.1.15,2013-07-23 22:04:00,
2013-07-23 17:10:00,78.3,58.7,29.96,ENE,61,2.0,4.0,51,0.00,,,0.00,Wunderground v.1.15,2013-07-23 22:10:00,
2013-07-23 17:15:00,78.6,59.0,29.96,NNE,32,2.0,4.0,51,0.00,,,0.00,Wunderground v.1.15,2013-07-23 22:15:00,
2013-07-23 17:20:00,78.4,58.8,29.96,North,9,0.0,4.0,51,0.00,,,0.00,Wunderground v.1.15,2013-07-23 22:20:00,
2013-07-23 17:25:00,78.1,59.0,29.96,NNW,345,1.0,4.0,52,0.00,,,0.00,Wunderground v.1.15,2013-07-23 22:25:00,
2013-07-23 17:31:00,77.9,58.9,29.96,NW,315,0.0,5.0,52,0.00,,,0.00,Wunderground v.1.15,2013-07-23 22:31:00,
2013-07-23 17:36:00,77.3,57.2,29.96,NE,42,0.0,4.0,50,0.00,,,0.00,Wunderground v.1.15,2013-07-23 22:36:00,
2013-07-23 17:41:00,77.0,59.6,29.96,East,96,5.0,5.0,55,0.00,,,0.00,Wunderground v.1.15,2013-07-23 22:41:00,
2013-07-23 17:47:00,76.9,57.9,29.97,NNW,336,2.0,7.0,52,0.00,,,0.00,Wunderground v.1.15,2013-07-23 22:47:00,
2013-07-23 17:52:00,76.7,57.2,29.97,North,9,3.0,7.0,51,0.00,,,0.00,Wunderground v.1.15,2013-07-23 22:52:00,
2013-07-23 17:57:00,76.4,57.5,29.97,NNE,13,0.0,3.0,52,0.00,,,0.00,Wunderground v.1.15,2013-07-23 22:57:00,
2013-07-23 18:02:00,76.3,58.4,29.97,NNE,13,1.0,3.0,54,0.00,,,0.00,Wunderground v.1.15,2013-07-23 23:02:00,
2013-07-23 18:07:00,76.4,58.5,29.97,NNE,28,3.0,5.0,54,0.00,,,0.00,Wunderground v.1.15,2013-07-23 23:07:00,
2013-07-23 18:13:00,76.6,57.7,29.97,NNE,19,3.0,3.0,52,0.00,,,0.00,Wunderground v.1.15,2013-07-23 23:13:00,
2013-07-23 18:18:00,76.6,58.7,29.97,NE,38,0.0,3.0,54,0.00,,,0.00,Wunderground v.1.15,2013-07-23 23:18:00,
2013-07-23 18:23:00,76.4,57.5,29.97,North,360,0.0,1.0,52,0.00,,,0.00,Wunderground v.1.15,2013-07-23 23:23:00,
2013-07-23 18:28:00,75.8,57.4,29.97,North,5,0.0,4.0,53,0.00,,,0.00,Wunderground v.1.15,2013-07-23 23:28:00,
2013-07-23 18:33:00,75.3,58.5,29.97,North,350,0.0,1.0,56,0.00,,,0.00,Wunderground v.1.15,2013-07-23 23:33:00,
2013-07-23 18:38:00,74.9,58.6,29.97,ENE,65,2.0,5.0,57,0.00,,,0.00,Wunderground v.1.15,2013-07-23 23:38:00,
2013-07-23 18:43:00,74.6,58.4,29.97,NNE,21,0.0,2.0,57,0.00,,,0.00,Wunderground v.1.15,2013-07-23 23:43:00,
2013-07-23 18:49:00,74.4,58.2,29.97,NNW,344,0.0,4.0,57,0.00,,,0.00,Wunderground v.1.15,2013-07-23 23:49:00,
2013-07-23 18:54:00,74.2,58.5,29.97,North,355,1.0,4.0,58,0.00,,,0.00,Wunderground v.1.15,2013-07-23 23:54:00,
2013-07-23 19:00:00,73.9,57.7,29.97,North,355,0.0,5.0,57,0.00,,,0.00,Wunderground v.1.15,2013-07-24 00:00:00,
2013-07-23 19:05:00,73.8,58.1,29.97,NNW,333,5.0,5.0,58,0.00,,,0.00,Wunderground v.1.15,2013-07-24 00:05:00,
2013-07-23 19:10:00,73.7,57.5,29.97,North,355,0.0,5.0,57,0.00,,,0.00,Wunderground v.1.15,2013-07-24 00:10:00,
2013-07-23 19:16:00,73.6,59.3,29.97,NNE,17,1.0,1.0,61,0.00,,,0.00,Wunderground v.1.15,2013-07-24 00:16:00,
2013-07-23 19:21:00,73.4,59.1,29.97,NE,36,0.0,3.0,61,0.00,,,0.00,Wunderground v.1.15,2013-07-24 00:21:00,
2013-07-23 19:27:00,73.2,58.9,29.97,NE,47,0.0,1.0,61,0.00,,,0.00,Wunderground v.1.15,2013-07-24 00:27:00,
2013-07-23 19:32:00,72.9,59.1,29.97,NE,52,0.0,0.0,62,0.00,,,0.00,Wunderground v.1.15,2013-07-24 00:32:00,
2013-07-23 19:37:00,72.7,58.9,29.97,NE,55,0.0,3.0,62,0.00,,,0.00,Wunderground v.1.15,2013-07-24 00:37:00,
2013-07-23 19:43:00,72.3,59.0,29.97,NE,55,2.0,2.0,63,0.00,,,0.00,Wunderground v.1.15,2013-07-24 00:43:00,
2013-07-23 19:48:00,71.9,59.1,29.97,NE,55,0.0,2.0,64,0.00,,,0.00,Wunderground v.1.15,2013-07-24 00:48:00,
2013-07-23 19:54:00,71.7,58.9,29.97,ENE,58,0.0,0.0,64,0.00,,,0.00,Wunderground v.1.15,2013-07-24 00:54:00,
2013-07-23 19:59:00,71.6,58.8,29.97,ENE,57,0.0,0.0,64,0.00,,,0.00,Wunderground v.1.15,2013-07-24 00:59:00,
2013-07-23 20:05:00,71.5,59.1,29.97,ENE,58,0.0,2.0,65,0.00,,,0.00,Wunderground v.1.15,2013-07-24 01:05:00,
2013-07-23 20:10:00,71.3,58.9,29.97,ENE,58,0.0,2.0,65,0.00,,,0.00,Wunderground v.1.15,2013-07-24 01:10:00,
2013-07-23 20:16:00,71.1,58.7,29.97,ENE,58,0.0,0.0,65,0.00,,,0.00,Wunderground v.1.15,2013-07-24 01:16:00,
2013-07-23 20:21:00,70.8,58.9,29.97,ENE,58,0.0,0.0,66,0.00,,,0.00,Wunderground v.1.15,2013-07-24 01:21:00,
2013-07-23 20:27:00,70.5,59.0,29.97,ENE,57,0.0,0.0,67,0.00,,,0.00,Wunderground v.1.15,2013-07-24 01:27:00,
2013-07-23 20:32:00,70.2,59.6,29.98,ENE,57,0.0,0.0,69,0.00,,,0.00,Wunderground v.1.15,2013-07-24 01:32:00,
2013-07-23 20:37:00,69.9,59.7,29.98,ENE,57,0.0,0.0,70,0.00,,,0.00,Wunderground v.1.15,2013-07-24 01:37:00,
2013-07-23 20:42:00,69.5,59.7,29.98,ENE,57,0.0,0.0,71,0.00,,,0.00,Wunderground v.1.15,2013-07-24 01:42:00,
2013-07-23 20:47:00,69.0,59.6,29.98,ENE,57,0.0,0.0,72,0.00,,,0.00,Wunderground v.1.15,2013-07-24 01:47:00,
2013-07-23 20:52:00,68.5,59.1,29.97,ENE,57,0.0,0.0,72,0.00,,,0.00,Wunderground v.1.15,2013-07-24 01:52:00,
2013-07-23 20:57:00,67.9,59.3,29.98,ENE,57,0.0,0.0,74,0.00,,,0.00,Wunderground v.1.15,2013-07-24 01:57:00,
2013-07-23 21:02:00,67.3,59.1,29.98,ENE,57,0.0,0.0,75,0.00,,,0.00,Wunderground v.1.15,2013-07-24 02:02:00,
2013-07-23 21:08:00,66.8,59.0,29.98,ENE,57,0.0,0.0,76,0.00,,,0.00,Wunderground v.1.15,2013-07-24 02:08:00,
2013-07-23 21:13:00,66.2,58.8,29.98,ENE,57,0.0,0.0,77,0.00,,,0.00,Wunderground v.1.15,2013-07-24 02:13:00,
2013-07-23 21:18:00,65.7,59.0,29.98,ENE,57,0.0,0.0,79,0.00,,,0.00,Wunderground v.1.15,2013-07-24 02:18:00,
2013-07-23 21:23:00,65.1,58.8,29.98,ENE,57,0.0,0.0,80,0.00,,,0.00,Wunderground v.1.15,2013-07-24 02:23:00,
2013-07-23 21:29:00,64.7,58.7,29.98,ENE,57,0.0,0.0,81,0.00,,,0.00,Wunderground v.1.15,2013-07-24 02:29:00,
2013-07-23 21:34:00,64.3,58.7,29.98,ENE,57,0.0,0.0,82,0.00,,,0.00,Wunderground v.1.15,2013-07-24 02:34:00,
2013-07-23 21:39:00,63.8,58.5,29.98,ENE,57,0.0,0.0,83,0.00,,,0.00,Wunderground v.1.15,2013-07-24 02:39:00,
2013-07-23 21:44:00,63.3,58.4,29.98,ENE,57,0.0,0.0,84,0.00,,,0.00,Wunderground v.1.15,2013-07-24 02:44:00,
2013-07-23 21:49:00,62.9,58.3,29.98,ENE,57,0.0,0.0,85,0.00,,,0.00,Wunderground v.1.15,2013-07-24 02:49:00,
2013-07-23 21:54:00,62.5,58.3,29.98,ENE,57,0.0,0.0,86,0.00,,,0.00,Wunderground v.1.15,2013-07-24 02:54:00,
2013-07-23 22:00:00,62.2,58.3,29.99,ENE,57,0.0,0.0,87,0.00,,,0.00,Wunderground v.1.15,2013-07-24 03:00:00,
2013-07-23 22:05:00,61.8,57.9,29.99,ENE,57,0.0,0.0,87,0.00,,,0.00,Wunderground v.1.15,2013-07-24 03:05:00,
2013-07-23 22:10:00,61.4,57.8,29.99,ENE,57,0.0,0.0,88,0.00,,,0.00,Wunderground v.1.15,2013-07-24 03:10:00,
2013-07-23 22:16:00,61.1,57.5,29.99,ENE,57,0.0,0.0,88,0.00,,,0.00,Wunderground v.1.15,2013-07-24 03:16:00,
2013-07-23 22:21:00,60.7,57.1,29.99,ENE,57,0.0,0.0,88,0.00,,,0.00,Wunderground v.1.15,2013-07-24 03:21:00,
2013-07-23 22:26:00,60.4,57.1,29.99,ENE,57,0.0,0.0,89,0.00,,,0.00,Wunderground v.1.15,2013-07-24 03:26:00,
2013-07-23 22:32:00,60.1,56.8,29.99,ENE,57,0.0,0.0,89,0.00,,,0.00,Wunderground v.1.15,2013-07-24 03:32:00,
2013-07-23 22:37:00,59.8,56.6,29.99,ENE,57,0.0,0.0,89,0.00,,,0.00,Wunderground v.1.15,2013-07-24 03:37:00,
2013-07-23 22:42:00,59.5,56.6,30.00,ENE,57,0.0,0.0,90,0.00,,,0.00,Wunderground v.1.15,2013-07-24 03:42:00,
2013-07-23 22:47:00,59.1,56.2,30.00,ENE,57,0.0,0.0,90,0.00,,,0.00,Wunderground v.1.15,2013-07-24 03:47:00,
2013-07-23 22:53:00,58.9,56.0,30.00,ENE,57,0.0,0.0,90,0.00,,,0.00,Wunderground v.1.15,2013-07-24 03:53:00,
2013-07-23 22:58:00,58.6,56.0,30.00,ENE,57,0.0,0.0,91,0.00,,,0.00,Wunderground v.1.15,2013-07-24 03:58:00,
2013-07-23 23:01:00,58.5,55.9,30.00,ENE,57,0.0,0.0,91,0.00,,,0.00,Wunderground v.1.15,2013-07-24 04:01:00,
2013-07-23 23:02:00,58.4,55.8,30.00,ENE,57,0.0,0.0,91,0.00,,,0.00,Wunderground v.1.15,2013-07-24 04:02:00,
2013-07-23 23:06:00,58.2,55.6,30.00,ENE,57,0.0,0.0,91,0.00,,,0.00,Wunderground v.1.15,2013-07-24 04:06:00,
2013-07-23 23:11:00,58.0,55.7,30.00,ENE,57,0.0,0.0,92,0.00,,,0.00,Wunderground v.1.15,2013-07-24 04:11:00,
2013-07-23 23:16:00,57.8,55.5,30.00,ENE,57,0.0,0.0,92,0.00,,,0.00,Wunderground v.1.15,2013-07-24 04:16:00,
2013-07-23 23:21:00,57.6,55.3,30.00,ENE,57,0.0,0.0,92,0.00,,,0.00,Wunderground v.1.15,2013-07-24 04:21:00,
2013-07-23 23:26:00,57.3,55.0,30.00,ENE,57,0.0,0.0,92,0.00,,,0.00,Wunderground v.1.15,2013-07-24 04:26:00,
2013-07-23 23:31:00,57.1,55.1,30.00,ENE,57,0.0,0.0,93,0.00,,,0.00,Wunderground v.1.15,2013-07-24 04:31:00,
2013-07-23 23:36:00,56.9,54.9,30.00,ENE,57,0.0,0.0,93,0.00,,,0.00,Wunderground v.1.15,2013-07-24 04:36:00,
2013-07-23 23:41:00,56.7,54.7,30.00,ENE,57,0.0,0.0,93,0.00,,,0.00,Wunderground v.1.15,2013-07-24 04:41:00,
2013-07-23 23:47:00,56.5,54.5,30.00,ENE,57,0.0,0.0,93,0.00,,,0.00,Wunderground v.1.15,2013-07-24 04:47:00,
2013-07-23 23:52:00,56.4,54.4,30.00,ENE,57,0.0,0.0,93,0.00,,,0.00,Wunderground v.1.15,2013-07-24 04:52:00,
2013-07-23 23:57:00,56.2,54.2,30.00,ENE,57,0.0,0.0,93,0.00,,,0.00,Wunderground v.1.15,2013-07-24 04:57:00,